Weather History for KBFF - January, 2009

Change the Weather History Date:

Tuesday, January 27, 2009

  Actual Average Record
Temperature  
Mean Temperature 1 °F 28 °F  
Max Temperature 24 °F 42 °F 67 °F (2003)
Min Temperature -22 °F 14 °F -29 °F (1902)
Degree Days  
Heating Degree Days 64 37  
Month to date heating degree days 964 1022  
Since 1 July heating degree days 3702 3794  
Moisture  
Dew Point -13 °F    
Average Humidity 76    
Maximum Humidity 87    
Minimum Humidity 65    
Precipitation  
Precipitation 0.00 in 0.01 in 0.19 in (1995)
Month to date precipitation 0.83 0.35  
Year to date precipitation 0.83 0.35  
Snow  
Snow 0.00 in 0.20 in 4.00 in (1944)
Month to date snowfall 13.2 4.7  
Since 1 July snowfall 20.1 20.7  
Snow Depth 13.00 in    
Sea Level Pressure  
Sea Level Pressure 30.28 in    
Wind  
Wind Speed 6 mph (NW)    
Max Wind Speed 20 mph    
Max Gust Speed -    
Visibility 8 miles    
Events      
T = Trace of Precipitation, MM = Missing Value Source: NWS Daily Summary

Daily Weather History Graph

Daily Weather History Graph

Search for Another Location

Airport or City:

Trip Planner

Search our weather history database for the weather conditions in past years. The results will help you decide how hot, cold, wet, or windy it might be!

Date:

Astronomy

Jan. 27, 2009 Rise Set
Actual Time 7:11 AM MST 5:03 PM MST
Civil Twilight 6:41 AM MST 5:33 PM MST
Nautical Twilight 6:07 AM MST 6:07 PM MST
Astronomical Twilight 5:35 AM MST 6:40 PM MST
Moon 7:51 AM MST (1/27) 6:41 PM MST (1/27)
Length of Visible Light 10h 51m
Length of Day
9h 52m
New Moon, 2% of the Moon is Illuminated
Jan 27
New Moon
Feb 2
First Quarter
Feb 9
Full
Feb 16
Last Quarter
Feb 24
New

Hourly Weather History & Observations

Time (MST) Temp. Windchill Dew Point Humidity Pressure Visibility Wind Dir Wind Speed Gust Speed Precip Events Conditions
12:11 AM -20.2 °F -33.5 °F -25.6 °F 76% 30.23 in 10.0 mi North 4.6 mph - N/A   Scattered Clouds
12:19 AM -20.2 °F -35.5 °F -23.8 °F 83% 30.23 in 8.0 mi NW 5.8 mph - N/A   Mostly Cloudy
12:42 AM -20.2 °F -35.5 °F -25.6 °F 76% 30.23 in 10.0 mi NNW 5.8 mph - N/A   Scattered Clouds
12:53 AM -20.9 °F -34.3 °F -24.0 °F 86% 30.56 in 10.0 mi NW 4.6 mph - N/A   Clear
1:53 AM -20.9 °F -34.3 °F -25.1 °F 81% 30.53 in 10.0 mi NNW 4.6 mph - N/A   Clear
2:53 AM -18.0 °F -30.9 °F -22.0 °F 82% 30.52 in 10.0 mi NW 4.6 mph - N/A   Overcast
3:30 AM -14.8 °F -32.2 °F -18.4 °F 84% 30.19 in 4.0 mi NW 8.1 mph - N/A   Overcast
3:39 AM -14.8 °F -29.1 °F -18.4 °F 84% 30.19 in 4.0 mi NW 5.8 mph - N/A   Overcast
3:46 AM -14.8 °F -29.1 °F -18.4 °F 84% 30.19 in 5.0 mi NW 5.8 mph - N/A   Overcast
3:53 AM -15.0 °F -29.3 °F -18.9 °F 82% 30.49 in 6.0 mi NW 5.8 mph - N/A   Overcast
4:53 AM -15.0 °F -29.3 °F -20.0 °F 78% 30.48 in 8.0 mi NW 5.8 mph - N/A   Mostly Cloudy
5:53 AM -17.0 °F -29.7 °F -22.0 °F 78% 30.49 in 7.0 mi WNW 4.6 mph - N/A   Scattered Clouds
6:06 AM -18.4 °F -33.4 °F -22.0 °F 84% 30.15 in 7.0 mi NW 5.8 mph - N/A   Mostly Cloudy
6:15 AM -18.4 °F -35.1 °F -22.0 °F 84% 30.15 in 6.0 mi NW 6.9 mph - N/A   Mostly Cloudy
6:53 AM -18.9 °F -35.8 °F -24.0 °F 78% 30.49 in 5.0 mi NW 6.9 mph - N/A   Haze
7:24 AM -20.2 °F -38.8 °F -25.6 °F 76% 30.13 in 2.5 mi WNW 8.1 mph - N/A   Haze
7:46 AM -18.4 °F -37.9 °F -23.8 °F 76% 30.14 in 3.0 mi NW 9.2 mph - N/A   Mostly Cloudy
7:53 AM -18.9 °F -38.6 °F -23.1 °F 81% 30.50 in 4.0 mi NW 9.2 mph - N/A   Scattered Clouds
8:53 AM -16.1 °F -30.6 °F -18.9 °F 87% 30.48 in 4.0 mi NNW 5.8 mph - N/A   Clear
9:53 AM -11.9 °F -21.5 °F -17.0 °F 78% 30.44 in 5.0 mi NW 3.5 mph - N/A   Haze
10:53 AM -9.0 °F -20.4 °F -14.1 °F 79% 30.43 in 6.0 mi NNW 4.6 mph - N/A   Haze
11:53 AM -5.1 °F -15.8 °F -11.0 °F 76% 30.37 in 7.0 mi NW 4.6 mph - N/A   Clear
12:53 PM -2.2 °F -14.2 °F -9.4 °F 71% 29.98 in 7.0 mi NW 5.8 mph - N/A   Clear
1:53 PM -0.0 °F -11.6 °F -6.0 °F 76% 30.28 in 8.0 mi NNW 5.8 mph - N/A   Clear
2:53 PM 3.0 °F -4.4 °F -4.0 °F 73% 30.24 in 9.0 mi NNW 3.5 mph - N/A   Clear
3:53 PM 3.9 °F - -4.0 °F 70% 30.22 in 9.0 mi Calm Calm - N/A   Clear
4:53 PM 1.9 °F -9.2 °F -5.1 °F 72% 30.22 in 10.0 mi NNW 5.8 mph - N/A   Clear
5:53 PM 12.9 °F -0.9 °F 3.9 °F 67% 30.19 in 10.0 mi WNW 11.5 mph - N/A   Clear
6:53 PM 10.9 °F -2.6 °F 1.9 °F 67% 30.19 in 10.0 mi WNW 10.4 mph - N/A   Clear
7:53 PM 14.0 °F -2.0 °F 5.0 °F 67% 30.17 in 10.0 mi WNW 16.1 mph - N/A   Clear
8:53 PM 17.1 °F 3.6 °F 7.0 °F 65% 30.15 in 10.0 mi WNW 12.7 mph - N/A   Clear
9:53 PM 21.9 °F 6.9 °F 12.0 °F 66% 30.12 in 10.0 mi West 19.6 mph - N/A   Clear
10:53 PM 21.9 °F 10.4 °F 12.0 °F 66% 30.12 in 10.0 mi West 11.5 mph - N/A   Partly Cloudy
11:53 PM 21.9 °F 10.4 °F 12.9 °F 68% 30.09 in 10.0 mi West 11.5 mph - N/A   Clear